Location: Aldrans
(47.2500°N, 11.4500°E)
Time: 13:19:09
(UTC+00:00)

Daily predictions for brighter satellites

Satellite Brightness Start Highest point End
(mag) Time Altitude Azimuth Time Altitude Azimuth Time Altitude Azimuth
Cosmos 2237 Rocket 2.7 18:37:26 10° NNW 18:42:50 44° NE 18:48:12 10° SE
Helios 1A Rocket 3.4 18:41:45 10° S 18:45:48 66° WSW 18:49:55 10° NNW
Cosmos 1818 3.6 18:41:46 10° SSW 18:47:11 75° SE 18:52:40 10° NE
DMSP B5D2-2 4.1 18:42:52 10° NNE 18:48:09 84° ESE 18:53:26 10° SSW
H-2A R/B 4.3 18:45:59 10° SSW 18:50:05 25° W 18:54:09 10° NW
Cosmos 1892 4.0 18:49:01 10° NNW 18:52:38 43° W 18:56:15 10° SSW
Cosmos 1825 2.1 18:50:28 10° N 18:54:16 86° E 18:58:03 10° S
Exosat Rocket 3.8 18:51:31 10° NNW 18:57:55 86° WSW 19:03:00 10° SSE
MetOp-A 4.3 18:52:44 10° S 18:58:05 79° WSW 19:03:29 10° NNW
Cosmos 2227 Rocket 3.1 18:54:06 10° SSE 18:58:43 26° ESE 19:03:21 10° NE
CZ-4C R/B 4.3 18:54:24 10° W 18:59:02 29° NNW 19:04:32 10° NNE
Abrixas rocket 0.2 18:57:47 10° WSW 18:59:21 90° E 19:00:44 12° ENE
BREEZE-M DEB (TANK) 3.8 18:57:52 10° WSW 19:00:53 86° NNW 19:08:44 10° ENE
ATLAS 2AS CENTAUR R/B 3.7 18:53:08 10° SW 19:00:59 63° NW 19:08:40 10° NE
Cosmos 1092 Rocket 4.3 18:54:58 10° NNW 19:01:14 74° W 19:07:22 10° S
Cosmos 2058 3.0 18:59:41 10° N 19:03:54 82° W 19:08:03 10° S
Cosmos 2297 Rocket 2.7 19:00:05 10° S 19:05:13 37° ESE 19:10:23 10° NE
FALCON 9 DEB 3.9 19:03:54 10° SSW 19:06:28 25° SE 19:09:02 10° E
Cosmos 1633 3.5 19:03:22 10° NNE 19:06:34 29° ENE 19:09:14 13° SE
Lacrosse 5 rocket 3.6 19:04:44 10° NW 19:08:00 22° N 19:11:24 10° NE
FALCON 9 DEB 3.5 19:08:22 10° SSW 19:11:06 32° SE 19:13:52 10° ENE
Resurs 01 Rocket 2.2 19:08:36 11° SE 19:12:35 40° ENE 19:16:47 10° N
Resurs 1-3 3.6 19:09:56 10° SSE 19:14:17 68° ENE 19:18:40 10° N
Cosmos 2219 3.6 19:09:11 10° S 19:14:21 40° ESE 19:19:33 10° NE
Genesis I 3.7 19:10:41 10° NNW 19:14:36 49° NE 19:17:40 15° ESE
BREEZE-M DEB (TANK) 3.7 19:12:14 10° W 19:16:06 81° N 19:29:58 10° ENE
Cosmos 2333 Rocket 3.9 19:11:28 10° NW 19:16:31 32° WSW 19:21:32 10° SSW
SJ-6B 3.3 19:14:37 10° S 19:18:18 57° W 19:22:02 10° NNW
CZ-2C R/B 4.5 19:15:45 10° N 19:20:24 34° WNW 19:25:06 10° SW
Cosmos 2084 Rocket 3.8 19:18:56 10° S 19:22:32 34° ESE 19:26:13 10° NE
ERS-2 4.0 19:19:28 10° N 19:22:48 34° WNW 19:26:07 10° SW
Cosmos 389 Rocket 2.4 19:19:26 10° S 19:22:57 77° E 19:26:32 10° NNE
FALCON 9 DEB 3.1 19:20:14 10° SW 19:23:08 43° SE 19:26:03 10° ENE
Cosmos 1190 Rocket 4.4 19:18:17 10° S 19:23:09 40° ESE 19:28:00 10° NE
Ariane Rocket 3.1 19:19:37 10° SSE 19:24:41 83° WSW 19:29:46 10° NNW
Cosmos 614 Rocket 4.1 19:21:31 10° SSW 19:26:40 82° WNW 19:31:48 10° NNE
Terra 3.9 19:25:12 10° E 19:27:20 13° NE 19:29:29 10° NNE
Cosmos 2251 Rocket 4.2 19:23:11 10° SW 19:28:29 60° WNW 19:33:47 10° NNE
FALCON 9 DEB 4.3 19:26:34 10° W 19:29:51 43° NNW 19:33:10 10° NE
ATLAS 3B R/B 3.6 19:24:35 10° NW 19:31:17 47° WSW 19:38:13 10° S
Cosmos 2279 Rocket 4.0 19:26:59 10° S 19:33:10 86° E 19:39:24 10° N
SPOT 1/Viking Rocket 4.1 19:33:39 18° SE 19:37:05 42° ENE 19:41:59 10° N
SPOT 5 4.4 19:34:55 15° E 19:37:06 20° ENE 19:40:37 10° NNE
Cosmos 1980 3.9 19:33:31 10° NNW 19:39:12 72° WSW 19:44:12 14° SSE
Cosmos-2242 3.3 19:35:48 14° SSE 19:39:17 46° E 19:43:24 10° NNE
SL-16 R/B 2.7 19:34:24 10° NNW 19:39:53 45° NE 19:43:26 21° ESE
USA 215 3.7 19:34:16 13° E 19:40:01 56° NNE 19:46:24 10° NW
Cosmos 2151 2.9 19:36:44 10° N 19:41:03 72° E 19:44:09 18° SSE
Meteor 2-21 Rocket 4.5 19:35:35 10° N 19:41:36 62° ENE 19:46:19 17° SSE
FALCON 9 DEB 2.8 19:41:55 10° SW 19:44:55 56° SE 19:46:41 22° ENE
SPOT 3 Rocket 3.5 19:40:39 15° SSE 19:44:56 79° ENE 19:50:08 10° NNW
COSMOS 2455 3.3 19:43:02 10° S 19:48:29 38° ESE 19:53:59 10° NE
SL-4 R/B 2.2 19:47:34 10° SW 19:51:52 60° SSE 19:56:29 10° ENE
BREEZE M DEB (TANK) 4.2 19:51:35 10° SSW 19:55:07 42° SE 20:05:09 10° ENE
ERS-1 Rocket 3.9 19:53:53 23° ESE 19:56:00 32° ENE 20:00:25 10° N
IGS 5A 3.4 19:54:21 22° SSE 19:57:00 87° WSW 20:01:10 10° NNW
Cosmos 2266 Rocket 4.0 19:51:27 10° N 19:57:51 79° E 20:02:35 19° SSE
OBJECT-B 3.6 19:56:09 10° SW 19:58:20 17° W 20:00:32 10° NW
Landsat 7 3.7 19:55:13 21° SSE 19:58:22 85° ENE 20:03:10 10° NNW
Cosmos 2221 4.0 20:05:05 20° E 20:05:05 20° E 20:07:58 10° NE
ARIANE 5 R/B 2.9 20:04:04 33° SE 20:05:41 50° ENE 20:09:56 10° N
Cosmos 2344 4.2 19:59:16 10° WSW 20:06:33 57° NW 20:14:37 10° NE
USA 245 3.0 20:05:50 45° SE 20:06:35 59° ENE 20:09:34 10° N
Cosmos 407 Rocket 3.8 20:02:09 10° SSW 20:07:15 68° WNW 20:12:27 10° NNE
MetOp-B 4.2 20:09:17 23° S 20:12:47 81° WSW 20:18:10 10° NNW
Meteor 2-3 Rocket 3.9 20:08:07 10° NNW 20:13:52 76° W 20:17:47 21° S
Meteor 1-27 4.2 20:14:09 15° S 20:18:55 80° E 20:24:47 10° NNE
Cosmos 44 Rocket 3.4 20:14:01 10° SSW 20:18:56 55° ESE 20:24:01 10° NE
Cosmos 1140 Rocket 4.0 20:15:30 10° SW 20:20:33 60° WNW 20:25:39 10° NNE
CZ-2C R/B 3.7 20:20:03 10° NNE 20:24:30 78° WNW 20:27:42 18° SSW
Cosmos 1954 Rocket 3.8 20:19:29 10° SSW 20:24:34 83° ESE 20:29:47 10° NNE
Cosmos 2237 Rocket 3.5 20:21:46 10° NW 20:26:45 33° WSW 20:30:48 14° SSW
Timation 2 Rocket 4.2 20:21:06 10° SW 20:27:39 74° WNW 20:33:57 10° NNE
Meteor 2-15 4.5 20:29:12 34° SSE 20:31:45 59° E 20:37:42 10° NNE
Cosmos 2263 Rocket 3.4 20:34:38 25° E 20:34:38 25° E 20:38:09 10° NE
Spot 2 Rocket 3.4 20:32:07 38° S 20:34:09 84° WSW 20:39:16 10° NNW
CARTOSAT-1 3.4 20:33:28 53° SSE 20:34:27 84° ENE 20:38:48 10° NNW
Aureole 1 Rocket 4.3 20:35:06 33° E 20:35:06 33° E 20:38:52 10° NE
Cosmos 1766 Rocket 3.6 20:30:45 10° NNW 20:35:06 75° W 20:36:22 45° S
USA 229 DEB 4.4 20:28:29 10° NW 20:35:32 52° NE 20:39:35 27° ESE
USA 229 4.4 20:28:35 10° NW 20:35:38 52° NE 20:39:42 27° ESE
BREEZE M DEB (TANK) 2.4 20:29:21 10° W 20:35:48 70° NNW 20:36:34 47° NE
FALCON 9 DEB 3.7 20:39:05 10° WSW 20:41:38 47° WNW 20:41:38 47° WNW
Cosmos 2227 Rocket 2.9 20:36:52 10° SW 20:42:25 55° WNW 20:47:59 10° NNE
Cosmos 2082 3.6 20:37:15 12° SSW 20:42:27 87° ESE 20:48:06 10° NNE
Okean 3 Rocket 3.9 20:39:46 10° NNW 20:44:15 61° W 20:45:39 40° SSW
H-2A R/B 4.1 20:41:19 10° NNE 20:44:43 40° ENE 20:44:43 40° ENE
FALCON 9 DEB 4.0 20:43:50 10° W 20:46:28 43° NW 20:46:28 43° NW
Lacrosse 5 rocket 2.9 20:44:19 10° NW 20:48:11 31° NNE 20:49:58 23° ENE
Cosmos 1869 3.8 20:47:58 37° SW 20:49:13 55° WNW 20:53:06 10° N
Resurs 01 Rocket 3.6 20:46:10 12° SW 20:49:14 23° W 20:52:49 10° NW
Cosmos 2297 Rocket 3.5 20:43:57 10° WSW 20:49:14 40° NW 20:54:34 10° NNE
Cosmos 1553 Rocket 4.2 20:48:26 43° SE 20:49:38 49° E 20:55:28 10° NNE
Cosmos 468 Rocket 3.9 20:45:27 10° NNW 20:50:36 86° WSW 20:51:46 55° SSE
Meteor 1-4 Rocket 3.1 20:50:30 48° WSW 20:50:53 51° WNW 20:54:22 10° N
NOSS 3-1 (A) 4.3 20:46:21 10° NW 20:53:35 60° NE 20:57:37 32° ESE
Cosmos 1603 4.3 20:49:04 10° NNW 20:54:36 46° NE 20:55:59 39° E
Cosmos 841 Rocket 3.8 20:50:21 10° NNW 20:55:27 51° ENE 20:56:15 47° E
Cosmos 1763 Rocket 3.5 20:58:22 10° NNW 21:03:26 70° WSW 21:04:17 58° SSW
Terra 1.6 21:03:52 72° SSE 21:04:20 85° ENE 21:09:08 10° NNW
Cosmos 1814 Rocket 4.4 21:06:03 10° NNW 21:11:13 50° ENE 21:11:45 48° E
Cosmos 540 Rocket 3.3 21:06:07 10° NNW 21:11:15 76° ENE 21:11:41 71° ESE
Cosmos 921 Rocket 3.5 21:08:20 10° N 21:12:21 51° NE 21:12:21 51° NE
SPOT 5 3.1 21:14:08 51° SW 21:14:44 56° W 21:19:29 10° NNW
Meteor 2-2 Rocket 4.3 21:15:41 47° SSW 21:17:25 80° WNW 21:23:08 10° N
NOSS 3-1 (C) 4.0 21:10:00 10° NW 21:17:30 81° SW 21:20:23 46° SSE
Cosmos 1842 Rocket 3.7 21:20:26 66° W 21:20:37 67° W 21:25:05 10° N
USA 215 3.3 21:21:35 51° S 21:23:00 62° SW 21:29:30 10° WNW
SL-16 R/B 3.4 21:18:50 10° NW 21:23:50 33° WSW 21:25:19 29° SW
SL-08 ROCKET BODY 4.4 21:24:26 10° NNW 21:30:30 75° W 21:31:36 59° SSW
SL-4 R/B 2.9 21:27:11 10° W 21:31:41 56° NNW 21:33:32 33° NE
COSMOS 2455 3.8 21:28:33 10° WSW 21:34:20 47° NW 21:40:09 10° NNE
ERS-1 Rocket 3.9 21:33:52 35° WSW 21:34:43 37° W 21:39:23 10° NNW
ATLAS 5 CENTAUR R/B 4.5 21:36:01 10° NNW 21:39:23 17° NNE 21:43:06 10° ENE
Cosmos 2227 4.1 21:40:44 78° ESE 21:40:46 78° ESE 21:46:32 10° NNE
Cosmos 2221 3.6 21:41:54 39° W 21:42:05 39° WNW 21:46:07 10° N
Sich 1 3.8 21:38:16 10° N 21:41:28 47° NNE 21:41:28 47° NNE
Cosmos 1805 Rocket 4.1 21:38:29 10° N 21:41:58 56° N 21:41:58 56° N
Meteor 1-20 Rocket 4.2 21:42:07 10° N 21:47:54 69° ENE 21:48:01 69° E
Cosmos 1943 3.1 21:44:25 10° NNW 21:50:03 78° WSW 21:50:07 78° WSW
Cosmos 1745 Rocket 4.0 21:46:18 10° NNW 21:52:36 74° W 21:53:25 65° SSW
SeaSat 1 3.4 21:48:08 10° NE 21:51:19 36° ENE 21:51:19 36° ENE
Cosmos 1570 Rocket 4.1 21:48:13 10° NNW 21:53:15 72° W 21:53:15 72° W
Iridium 4 Rocket 4.4 21:58:16 38° ENE 21:58:16 38° ENE 22:02:29 10° NNE
Cosmos 1709 Rocket 3.8 21:51:37 10° N 21:57:51 75° E 21:58:09 73° ESE
Spot 4 4.2 22:00:15 59° NNE 22:00:15 59° NNE 22:04:27 10° N
Cosmos 1633 Rocket 4.2 21:59:12 10° N 22:02:12 39° NNE 22:02:12 39° NNE
S3M 4.2 22:05:25 57° SW 22:06:33 68° W 22:12:57 10° N
Cosmos 883 Rocket 4.3 22:06:43 80° SE 22:06:59 83° E 22:13:18 10° N
Cosmos 1666 Rocket 4.5 22:09:45 10° N 22:12:59 47° N 22:12:59 47° N
Cosmos 2263 Rocket 2.7 22:16:16 48° W 22:17:11 54° WNW 22:22:41 10° NNE
Cosmos 968 Rocket 4.2 22:22:53 46° NE 22:22:53 46° NE 22:26:43 10° NNE
USA 229 DEB 4.2 22:19:35 10° NW 22:26:36 49° WSW 22:27:01 48° SW
USA 229 4.2 22:19:40 10° NW 22:26:42 49° WSW 22:27:07 49° SW
Lacrosse 5 rocket 3.1 22:23:19 10° NW 22:25:35 30° WNW 22:25:35 30° WNW
Cosmos 1844 Rocket 3.6 22:30:56 36° ENE 22:30:56 36° ENE 22:34:39 10° NE
Cosmos 1151 Rocket 4.4 22:34:17 37° N 22:34:17 37° N 22:36:58 10° N
ALOS 2 3.7 22:35:37 42° N 22:35:37 42° N 22:38:35 10° NNW
CZ-4C R/B 4.5 22:34:54 10° NNW 22:40:37 29° NNE 22:47:13 10° E
Terra 4.3 22:42:45 12° W 22:42:45 12° W 22:44:41 10° WNW
Cosmos 1833 Rocket 4.5 22:49:17 10° N 22:53:56 25° NE 22:56:05 20° E
Cosmos 1486 Rocket 4.4 22:57:26 61° N 22:57:26 61° N 23:01:52 10° NNE
Meteor 1-5 Rocket 4.4 22:56:29 10° N 23:01:31 70° N 23:01:31 70° N
Cosmos 2154 Rocket 4.2 22:57:42 10° N 23:04:02 63° ENE 23:04:10 63° E
Meteor 2-6 Rocket 4.4 23:11:23 63° NNE 23:11:23 63° NNE 23:15:54 10° NNE
SL-4 R/B 4.3 23:07:17 10° WNW 23:09:09 23° WNW 23:09:09 23° WNW
Cosmos 2184 Rocket 3.9 23:08:49 10° N 23:14:58 77° WNW 23:14:58 77° WNW
SJ 16-02 3.9 23:17:22 14° ENE 23:17:22 14° ENE 23:18:26 10° NE
Cosmos 2327 Rocket 4.5 23:09:48 10° N 23:16:07 74° E 23:16:08 74° E
Cosmos 2278 Rocket 4.0 23:19:29 21° E 23:19:29 21° E 23:22:39 10° NE
ATLAS 5 CENTAUR R/B 3.1 23:20:01 10° NNW 23:25:14 47° NE 23:27:06 36° E
SeaSat 1 4.0 23:26:04 10° N 23:30:16 29° NW 23:31:05 27° WNW
Cosmos 2341 Rocket 4.4 23:24:11 10° N 23:30:25 53° ENE 23:31:01 51° E
Cosmos 1295 Rocket 4.4 23:24:26 10° N 23:30:44 82° ENE 23:30:44 82° ENE
Cosmos 1241 Rocket 4.5 23:33:02 81° W 23:33:17 82° NW 23:39:57 10° NE
Cosmos 1844 3.9 23:41:40 64° NW 23:41:40 64° NW 23:47:11 10° NNE
Cosmos 2074 Rocket 4.5 23:35:28 10° NNW 23:41:12 49° W 23:41:12 49° W
USA 281 3.0 23:43:08 80° SSE 23:43:33 90° SW 23:50:11 10° NNW
COSMOS 2406 3.7 23:38:48 10° NNW 23:44:22 53° ENE 23:44:55 51° ENE
Cosmos 962 Rocket 4.3 23:46:20 10° N 23:52:34 84° E 23:52:35 84° E
Gbstr 26 Del rocket 4.0 23:53:47 65° E 23:53:47 65° E 23:58:32 10° ENE
